Natchitoches, LA

6:08 AM CST on November 25, 2017 (GMT -0600)
Natchitoches Regional

Weather History for KIER - August, 2014

Change the Weather History Date:

Monday, August 18, 2014

  Actual Average Record
Temperature  
Mean Temperature 84 °F -  
Max Temperature 95 °F 94 °F 105 °F (2011)
Min Temperature 72 °F 72 °F 53 °F (1992)
Cooling Degree Days 18    
Growing Degree Days 34 (Base 50)    
Moisture  
Dew Point 74 °F    
Average Humidity 78    
Maximum Humidity 99    
Minimum Humidity 52    
Precipitation  
Precipitation 0.00 in - - ()
Sea Level Pressure  
Sea Level Pressure 29.95 in    
Wind  
Wind Speed 3 mph (SW)    
Max Wind Speed 14 mph    
Max Gust Speed 20 mph    
Visibility 9 miles    
Events Thunderstorm    
Averages and records for this station are not official NWS values.
T = Trace of Precipitation, MM = Missing Value Source: NWS Daily Summary

Daily Weather History Graph

Daily Weather History Graph

Search for Another Location

Airport or City:

Trip Planner

Search our weather history database for the weather conditions in past years. The results will help you decide how hot, cold, wet, or windy it might be!

Date:

Astronomy

Aug. 18, 2014 Rise Set
Actual Time 6:39 AM CDT 7:52 PM CDT
Civil Twilight 6:13 AM CDT 8:18 PM CDT
Nautical Twilight 5:43 AM CDT 8:48 PM CDT
Astronomical Twilight 5:11 AM CDT 9:19 PM CDT
Moon 12:51 AM CDT (8/18) 2:50 PM CDT (8/18)
Length of Visible Light 14h 04m
Length of Day
13h 13m
Last Quarter, 38% of the Moon is Illuminated
Aug 18
Last Quarter
Aug 25
New
Sep 2
First Quarter
Sep 8
Full
Sep 15
Last Quarter

Hourly Weather History & Observations

Time (CDT) Temp. Heat Index Dew Point Humidity Pressure Visibility Wind Dir Wind Speed Gust Speed Precip Events Conditions
12:15 AM 76.1 °F - 74.5 °F 95% 29.98 in 10.0 mi Calm Calm - N/A   Clear
12:35 AM 75.6 °F - 74.5 °F 96% 29.97 in 10.0 mi South 3.5 mph - N/A   Clear
12:55 AM 76.1 °F - 73.9 °F 93% 29.97 in 10.0 mi South 4.6 mph - N/A   Clear
1:15 AM 75.7 °F - 73.6 °F 93% 29.96 in 10.0 mi SSE 4.6 mph - N/A   Clear
1:35 AM 75.4 °F - 73.4 °F 94% 29.96 in 10.0 mi SSE 4.6 mph - N/A   Clear
1:55 AM 75.4 °F - 73.4 °F 94% 29.96 in 10.0 mi Calm Calm - N/A   Clear
2:15 AM 74.8 °F - 73.0 °F 94% 29.96 in 10.0 mi SSE 3.5 mph - N/A   Clear
2:35 AM 74.8 °F - 73.0 °F 94% 29.96 in 10.0 mi Calm Calm - N/A   Clear
2:55 AM 74.5 °F - 72.9 °F 95% 29.96 in 10.0 mi SSE 3.5 mph - N/A   Clear
3:15 AM 74.5 °F - 73.0 °F 95% 29.96 in 10.0 mi Calm Calm - N/A   Clear
3:35 AM 74.3 °F - 73.0 °F 96% 29.96 in 10.0 mi Calm Calm - N/A   Clear
3:55 AM 73.9 °F - 72.9 °F 96% 29.95 in 10.0 mi Calm Calm - N/A   Clear
4:15 AM 73.9 °F - 73.4 °F 98% 29.95 in 10.0 mi SSE 3.5 mph - N/A   Clear
4:35 AM 73.8 °F - 73.2 °F 98% 29.94 in 7.0 mi SSE 3.5 mph - N/A   Clear
4:55 AM 73.8 °F - 73.4 °F 99% 29.94 in 7.0 mi Calm Calm - N/A   Clear
5:15 AM 73.6 °F - 73.0 °F 98% 29.95 in 7.0 mi Calm Calm - N/A   Clear
5:35 AM 73.6 °F - 73.4 °F 99% 29.95 in 7.0 mi Calm Calm - N/A   Clear
5:55 AM 73.4 °F - 73.2 °F 99% 29.96 in 7.0 mi Calm Calm - N/A   Clear
6:15 AM 72.9 °F - 72.5 °F 99% 29.96 in 5.0 mi Calm Calm - N/A   Clear
6:35 AM 73.0 °F - 72.9 °F 99% 29.97 in 4.0 mi Calm Calm - N/A   Clear
6:55 AM 73.9 °F - 73.8 °F 99% 29.97 in 5.0 mi Calm Calm - N/A   Clear
7:15 AM 73.8 °F - 73.6 °F 99% 29.98 in 5.0 mi Calm Calm - N/A   Mostly Cloudy
7:35 AM 74.8 °F - 74.7 °F 99% 29.99 in 5.0 mi Calm Calm - N/A   Overcast
7:55 AM 76.5 °F - 75.9 °F 98% 29.99 in 7.0 mi Calm Calm - N/A   Mostly Cloudy
8:15 AM 77.5 °F - 76.1 °F 95% 30.00 in 7.0 mi Calm Calm - N/A   Scattered Clouds
8:35 AM 78.4 °F - 76.5 °F 94% 30.00 in 7.0 mi Calm Calm - N/A   Scattered Clouds
8:55 AM 80.2 °F 86.5 °F 77.4 °F 91% 30.01 in 7.0 mi Calm Calm - N/A   Scattered Clouds
9:15 AM 82.2 °F 91.3 °F 78.1 °F 87% 30.00 in 10.0 mi WSW 5.8 mph - N/A   Mostly Cloudy
9:35 AM 84.4 °F 95.4 °F 78.1 °F 81% 30.01 in 10.0 mi West 4.6 mph - N/A   Mostly Cloudy
9:55 AM 85.1 °F 96.7 °F 77.9 °F 79% 30.01 in 10.0 mi WSW 8.1 mph - N/A   Mostly Cloudy
10:15 AM 85.5 °F 96.8 °F 77.4 °F 77% 30.01 in 10.0 mi West 6.9 mph - N/A   Mostly Cloudy
10:35 AM 86.2 °F 96.9 °F 76.5 °F 73% 30.01 in 10.0 mi West 9.2 mph - N/A   Mostly Cloudy
10:55 AM 88.0 °F 100.2 °F 77.0 °F 70% 30.01 in 10.0 mi West 6.9 mph - N/A   Mostly Cloudy
11:15 AM 86.9 °F 97.3 °F 75.9 °F 70% 30.01 in 10.0 mi WSW 6.9 mph - N/A   Overcast
11:35 AM 88.3 °F 98.4 °F 75.0 °F 65% 30.00 in 10.0 mi WSW 10.4 mph 19.6 mph N/A   Scattered Clouds
11:55 AM 90.0 °F 100.7 °F 75.6 °F 62% 30.00 in 10.0 mi SW 9.2 mph - N/A   Scattered Clouds
12:15 PM 88.9 °F 98.6 °F 75.0 °F 63% 29.99 in 10.0 mi WSW 8.1 mph - N/A   Scattered Clouds
12:35 PM 90.9 °F 101.2 °F 74.8 °F 59% 29.98 in 10.0 mi West 9.2 mph - N/A   Scattered Clouds
12:55 PM 90.9 °F 102.4 °F 75.7 °F 61% 29.97 in 10.0 mi West 8.1 mph - N/A   Scattered Clouds
1:15 PM 90.9 °F 102.4 °F 75.6 °F 61% 29.97 in 10.0 mi West 4.6 mph - N/A   Scattered Clouds
1:35 PM 90.5 °F 101.5 °F 75.6 °F 61% 29.96 in 10.0 mi SW 5.8 mph - N/A   Scattered Clouds
1:55 PM 91.4 °F 102.5 °F 75.4 °F 59% 29.95 in 10.0 mi WSW 9.2 mph - N/A   Scattered Clouds
2:15 PM 91.9 °F 103.2 °F 75.2 °F 58% 29.94 in 10.0 mi WSW 8.1 mph - N/A   Mostly Cloudy
2:35 PM 93.2 °F 105.0 °F 75.4 °F 56% 29.94 in 10.0 mi SW 8.1 mph - N/A   Mostly Cloudy
2:55 PM 92.3 °F 104.1 °F 75.7 °F 58% 29.93 in 10.0 mi WSW 3.5 mph - N/A   Scattered Clouds
3:15 PM 91.8 °F 103.4 °F 75.4 °F 59% 29.93 in 10.0 mi SW 4.6 mph - N/A   Mostly Cloudy
3:35 PM 93.0 °F 104.6 °F 75.2 °F 56% 29.93 in 10.0 mi WSW 5.8 mph - N/A   Mostly Cloudy
3:55 PM 94.1 °F 105.9 °F 75.4 °F 54% 29.92 in 10.0 mi West 5.8 mph - N/A   Scattered Clouds
4:15 PM 92.7 °F 103.0 °F 74.3 °F 55% 29.91 in 10.0 mi SW 5.8 mph - N/A   Scattered Clouds
4:35 PM 92.3 °F 105.5 °F 76.5 °F 60% 29.90 in 10.0 mi NW 4.6 mph - N/A   Scattered Clouds
4:55 PM 92.3 °F 105.5 °F 76.8 °F 60% 29.90 in 10.0 mi Calm Calm - N/A   Scattered Clouds
5:15 PM 95.0 °F 107.4 °F 75.4 °F 53% 29.89 in 10.0 mi Calm Calm - N/A   Clear
5:35 PM 94.1 °F 105.9 °F 75.0 °F 54% 29.89 in 10.0 mi SW 3.5 mph - N/A   Clear
5:55 PM 93.9 °F 104.0 °F 74.1 °F 52% 29.88 in 10.0 mi Calm Calm - N/A   Clear
6:15 PM 91.0 °F 102.2 °F 75.2 °F 60% 29.90 in 10.0 mi WSW 3.5 mph - N/A   Clear
6:35 PM 90.1 °F 101.2 °F 75.6 °F 62% 29.89 in 10.0 mi Calm Calm - N/A   Clear
6:55 PM 89.4 °F 103.6 °F 77.9 °F 69% 29.89 in 10.0 mi Calm Calm - N/A Thunderstorm Clear
7:15 PM 90.1 °F 103.7 °F 77.2 °F 66% 29.90 in 10.0 mi SSW 13.8 mph - N/A   Scattered Clouds
7:35 PM 85.3 °F 91.5 °F 72.5 °F 65% 29.89 in 10.0 mi WSW 8.1 mph - N/A   Scattered Clouds
7:55 PM 83.3 °F 87.9 °F 71.1 °F 66% 29.89 in 10.0 mi SW 3.5 mph - N/A   Clear
8:15 PM 81.1 °F 85.4 °F 71.6 °F 73% 29.90 in 10.0 mi South 6.9 mph - N/A   Clear
8:35 PM 80.6 °F 84.6 °F 71.6 °F 74% 29.92 in 10.0 mi SSW 4.6 mph - N/A   Clear
8:55 PM 79.0 °F - 71.4 °F 78% 29.93 in 10.0 mi South 4.6 mph - N/A   Clear
9:15 PM 79.0 °F - 69.4 °F 72% 29.94 in 10.0 mi SW 4.6 mph - N/A   Clear
9:35 PM 78.3 °F - 68.5 °F 72% 29.94 in 10.0 mi SSW 3.5 mph - N/A   Clear
9:55 PM 77.5 °F - 68.5 °F 74% 29.94 in 10.0 mi WSW 3.5 mph - N/A   Clear
10:15 PM 77.0 °F - 68.9 °F 76% 29.94 in 10.0 mi SSW 3.5 mph - N/A   Clear
10:35 PM 75.9 °F - 69.4 °F 80% 29.93 in 10.0 mi South 4.6 mph - N/A   Clear
11:15 PM 75.0 °F - 69.3 °F 82% 29.93 in 10.0 mi Calm Calm - N/A   Clear
11:35 PM 75.0 °F - 69.4 °F 83% 29.95 in 10.0 mi Calm Calm - N/A   Clear
11:55 PM 74.1 °F - 70.2 °F 87% 29.95 in 10.0 mi Calm Calm - N/A   Clear